SHIYAN 30-04

Basic Information
目录编号:
68140
目录名称:
SHIYAN 30-04
国际标识:
2026-048B
轨道中心:
EARTH
卫星名称:
SHIYAN 30-04
卫星全名:
SHIYAN 30-04
卫星状态:
在轨 (已飞行2 天)
发射日期:
2026-03-12 UTC
国别 :
中国 (CN)
星等 :
--
Orbit Information
数据来源 国际轨道数据
星历时间: 2026-03-13T22:09:04+0800
12小时前
查看轨道信息
半长轴: 6967.905km
偏心率: 0.0004067
轨道倾角: 34.991°
近地点辐角 307.974°
升交点赤经 120.700°
平近点角 52.060°
近地点: 586.934km
远地点: 592.602km
周期: 96.475分钟
每日圈数: 14.926207
Detailed Information
使用方式:
暂无
2D Orbit Map
3D Orbit Map
Orbit Altitude Analysis Chart
Orbit Inclination Analysis Chart
Orbit Comprehensive Analysis Chart
View Comprehensive Chart